EUTELSAT 21B (38992 NORAD) Tracking and Keplerian Element Data

This shows tracking and keplerian element data for the satellite.

Feedback or suggestion? Click here.




ElementValue
Catalog38992
NameEUTELSAT 21B
Epoch Orbit4482
Epoch Day34.68791789
Epoch Year2025
RAAN18.2672
Inclination0.069
Eccentricity0.0003026
Argument of Perigee304.6124
Mean Anonmoly80.4382
Mean Motion1.00273494
Decay Rate1.34E-06
L11 38992U 12062B 25034.68791789 .00000134 00000+0 00000+0 0 9997
L22 38992 0.0690 18.2672 0003026 304.6124 80.4382 1.00273494 44828



Live tracking and technical data element details for EUTELSAT 21B (NORAD 38992). EUTELSAT 21B can be tracked NOW for your location showing map with azimuth and elevation plus other details from your city location.







IsCatalogInMostPopularTable: catalog: 38992, numindb: 365
Update: records affected: 1



GetName: 38992 EUTELSAT 21B

Hit Count: updated at: Thu, 22 May 2025 02:45:16 GMT